East Porterville
DateTemperatureDew Point
09/03 - 07:30 AM61.3°54.4°
09/03 - 07:15 AM59.5°54.4°
09/03 - 07:00 AM57.6°54.3°
09/03 - 06:45 AM54.2°53.5°
09/03 - 06:30 AM52.0°51.7°
09/03 - 06:15 AM51.8°51.2°
09/03 - 06:00 AM51.8°51.2°
09/03 - 05:45 AM52.1°51.5°
09/03 - 05:30 AM52.5°51.5°
09/03 - 05:15 AM52.7°51.5°
09/03 - 05:00 AM53.2°52.0°
09/03 - 04:45 AM53.4°52.0°
09/03 - 04:30 AM53.4°51.7°
09/03 - 04:15 AM53.5°51.3°
09/03 - 04:00 AM54.0°51.2°
09/03 - 03:45 AM54.3°51.5°
09/03 - 03:30 AM54.6°51.6°
09/03 - 03:15 AM54.7°51.6°
09/03 - 03:00 AM54.7°51.3°
09/03 - 02:45 AM55.1°52.0°
09/03 - 02:30 AM55.7°52.2°
09/03 - 02:15 AM56.2°52.1°
09/03 - 02:00 AM56.7°51.7°
09/03 - 01:45 AM57.4°51.3°
09/03 - 01:30 AM58.3°51.6°
09/03 - 01:15 AM58.9°51.7°
09/03 - 01:00 AM59.2°51.6°
09/03 - 12:45 AM58.5°52.2°
09/03 - 12:30 AM59.0°52.3°
09/03 - 12:15 AM59.6°51.0°
09/03 - 12:00 AM60.4°51.0°
09/02 - 11:45 PM60.8°50.2°
09/02 - 11:30 PM60.7°50.2°
09/02 - 11:15 PM60.8°50.2°
09/02 - 11:00 PM60.9°50.3°
09/02 - 10:45 PM60.8°51.5°
09/02 - 10:30 PM61.6°52.8°
09/02 - 10:15 PM62.4°52.4°
09/02 - 10:00 PM62.8°51.5°
09/02 - 09:45 PM63.3°51.4°
09/02 - 09:30 PM63.7°52.3°
09/02 - 09:15 PM64.2°53.8°
09/02 - 09:00 PM64.7°54.9°
09/02 - 08:45 PM65.7°55.7°
09/02 - 08:30 PM66.4°54.9°
09/02 - 08:15 PM67.3°54.8°
09/02 - 08:00 PM68.7°55.1°
09/02 - 07:45 PM69.9°54.9°
09/02 - 07:30 PM71.6°55.6°
09/02 - 07:15 PM73.6°55.4°
09/02 - 07:00 PM75.6°55.4°
09/02 - 06:45 PM77.5°55.1°
09/02 - 06:30 PM78.9°54.1°
09/02 - 06:15 PM79.8°52.1°
09/02 - 06:00 PM80.6°52.9°
09/02 - 05:45 PM81.2°52.8°
09/02 - 05:30 PM81.6°52.8°
09/02 - 05:15 PM81.8°52.2°
09/02 - 05:00 PM82.1°52.4°
09/02 - 04:45 PM82.5°52.6°
09/02 - 04:30 PM82.7°53.1°
09/02 - 04:15 PM82.5°54.0°
09/02 - 04:00 PM82.3°54.0°
09/02 - 03:45 PM82.2°53.5°
09/02 - 03:30 PM82.1°53.6°
09/02 - 03:15 PM82.3°53.7°
09/02 - 03:00 PM82.2°54.0°
09/02 - 02:45 PM82.1°54.7°
09/02 - 02:30 PM82.3°54.6°
09/02 - 02:15 PM82.9°54.8°
09/02 - 02:00 PM82.9°54.8°
09/02 - 01:45 PM83.4°54.9°
09/02 - 01:30 PM82.6°54.8°
09/02 - 01:15 PM83.4°55.8°
09/02 - 01:00 PM83.4°55.9°
09/02 - 12:45 PM82.2°55.2°
09/02 - 12:30 PM81.9°55.1°
09/02 - 12:15 PM81.6°55.5°
09/02 - 12:00 PM81.1°55.0°
09/02 - 11:45 AM79.9°55.2°
09/02 - 11:30 AM77.9°54.4°
09/02 - 11:15 AM77.2°54.2°
09/02 - 11:00 AM76.3°54.7°
09/02 - 10:45 AM75.1°54.0°
09/02 - 10:30 AM74.7°54.4°
09/02 - 10:15 AM73.1°53.7°
09/02 - 10:00 AM72.1°53.4°
09/02 - 09:45 AM71.5°53.3°
09/02 - 09:30 AM70.7°53.1°
09/02 - 09:15 AM69.3°52.4°
09/02 - 09:00 AM68.5°51.9°
09/02 - 08:45 AM67.8°51.8°
09/02 - 08:30 AM66.5°52.0°
09/02 - 08:15 AM65.2°52.0°
09/02 - 08:00 AM63.7°51.9°
09/02 - 07:45 AM62.5°51.7°
09/02 - 07:30 AM60.8°51.4°
09/02 - 07:15 AM58.8°51.3°
09/02 - 07:00 AM56.3°51.0°
09/02 - 06:45 AM54.1°50.3°
09/02 - 06:30 AM53.7°49.5°
09/02 - 06:15 AM53.4°49.6°
09/02 - 06:00 AM52.5°50.0°
09/02 - 05:45 AM52.9°50.0°
09/02 - 05:30 AM53.1°49.8°
09/02 - 05:15 AM53.2°49.8°
09/02 - 05:00 AM54.1°50.2°
09/02 - 04:45 AM54.7°49.8°
09/02 - 04:30 AM55.5°50.0°
09/02 - 04:15 AM56.0°50.4°
09/02 - 04:00 AM55.3°51.1°
09/02 - 03:45 AM53.3°51.6°
09/02 - 03:30 AM52.7°51.3°
09/02 - 03:15 AM52.8°51.4°
09/02 - 03:00 AM52.9°51.5°
09/02 - 02:45 AM53.4°51.4°
09/02 - 02:30 AM53.9°51.7°
09/02 - 02:15 AM54.1°52.0°
09/02 - 02:00 AM54.5°52.1°
09/02 - 01:45 AM54.9°52.2°
09/02 - 01:30 AM55.4°52.3°
09/02 - 01:15 AM55.8°52.3°
09/02 - 01:00 AM56.2°52.4°
09/02 - 12:45 AM56.6°52.7°
09/02 - 12:30 AM56.7°52.4°
09/02 - 12:15 AM57.1°52.6°
09/02 - 12:00 AM57.6°53.2°
09/01 - 11:45 PM58.2°52.7°
09/01 - 11:30 PM58.6°52.3°
09/01 - 11:15 PM59.5°52.2°
09/01 - 11:00 PM59.7°52.0°
09/01 - 10:45 PM59.9°52.0°
09/01 - 10:30 PM60.3°51.5°
09/01 - 10:15 PM61.3°52.5°
09/01 - 10:00 PM62.6°52.3°
09/01 - 09:45 PM62.9°50.8°
09/01 - 09:30 PM63.0°51.0°
09/01 - 09:15 PM63.4°51.9°
09/01 - 09:00 PM64.5°52.4°
09/01 - 08:45 PM65.8°51.3°
09/01 - 08:30 PM66.4°51.7°
09/01 - 08:15 PM67.0°52.5°
09/01 - 08:00 PM68.1°52.9°
09/01 - 07:45 PM69.7°52.8°
09/01 - 07:30 PM71.5°53.0°
09/01 - 07:15 PM73.1°50.7°
09/01 - 07:00 PM75.3°52.3°
09/01 - 06:45 PM77.4°51.3°
09/01 - 06:30 PM79.0°48.8°
09/01 - 06:15 PM80.2°47.9°
09/01 - 06:00 PM81.0°47.2°
09/01 - 05:45 PM81.8°48.0°
09/01 - 05:30 PM82.3°47.5°
09/01 - 05:15 PM82.8°48.0°
09/01 - 05:00 PM83.1°48.6°
09/01 - 04:45 PM83.7°49.2°
09/01 - 04:30 PM83.8°50.1°
09/01 - 04:15 PM83.9°50.4°
09/01 - 04:00 PM84.2°50.5°
09/01 - 03:45 PM83.6°50.8°
09/01 - 03:30 PM83.8°50.9°
09/01 - 03:15 PM83.3°51.5°
09/01 - 03:00 PM83.5°51.6°
09/01 - 02:45 PM83.1°53.6°
09/01 - 02:30 PM83.7°54.7°
09/01 - 02:15 PM83.7°55.7°
09/01 - 02:00 PM83.1°55.1°
09/01 - 01:45 PM83.5°55.8°
09/01 - 01:30 PM84.1°57.1°
09/01 - 01:15 PM84.0°56.8°
09/01 - 01:00 PM83.5°57.7°
09/01 - 12:45 PM83.5°57.7°
09/01 - 12:30 PM82.6°58.4°
09/01 - 12:15 PM81.3°58.3°
09/01 - 12:00 PM80.4°58.1°
09/01 - 11:45 AM79.4°58.0°
09/01 - 11:30 AM78.9°57.8°
09/01 - 11:15 AM77.8°57.6°
09/01 - 11:00 AM76.7°57.7°
09/01 - 10:45 AM75.8°57.8°
09/01 - 10:30 AM74.3°57.5°
09/01 - 10:15 AM72.6°56.9°
09/01 - 10:00 AM72.1°56.7°
09/01 - 09:45 AM70.6°56.6°
09/01 - 09:30 AM69.4°56.0°
09/01 - 09:15 AM68.8°56.1°
09/01 - 09:00 AM68.1°56.4°
09/01 - 08:45 AM67.1°55.7°
09/01 - 08:30 AM66.0°55.3°
09/01 - 08:15 AM64.9°55.4°